Location: Battersea Observatory
(44.4318°N, 76.3841°W)
Time: 20:57:23
(UTC-04:00)

Tiros 1 despin weight - Pass Details

Date: 25 January 2022
Orbit: 592 x 639 km, 48.2° (Epoch: 25 May)

Event Time Altitude Azimuth Distance (km) Brightness Sun altitude
Rises 00:19:53 0° 281° (W) 2,938 - -64.5°
Reaches altitude 10° 00:23:32 10° 252° (WSW) 2,028 - -64.5°
Maximum altitude 00:25:27 12° 228° (SW) 1,867 - -64.5°
Drops below altitude 10° 00:27:23 10° 203° (SSW) 2,024 - -64.5°
Sets 00:31:01 0° 174° (S) 2,925 - -64.4°
